EXPRESS 103

Last updated on Sat Nov 01 2025 00:02:49 GMT+0000 (Coordinated Universal Time)

1 45985U 20053A 25304.70221663 -.00000270 00000+0 00000+0 0 9990 2 45985 0.0183 252.9752 0000318 268.0566 228.5501 1.00271224 19352
UTC large
Height (km)
Speed (km/s)
/
Latitude / Longitude
Inclination (degrees)
Orbital Period (minutes)
Azimuth
Elevation
Range (km)
Doppler Factor

Next 0 passes for location: London (51.5072 / 0.1276)

Sorry there are no passes over London.